SL-16 DEB, 43370

Orbit data source: Space-Track

SL-16 DEB, 43370 is space debris in SSO originally from a launch on Mon, 10 Dec 2001 UTC launched from the Tyuratam Missile And Space Complex (TTMTR). Debris objects in space refer to the collection of defunct objects orbiting the Earth. Examples of debris include non-operational satellites, rocket bodies, and fragments generated from explosions, collisions, or faulty payload assembly.

Loading next visibility...
Identifier
43370, 2001-056P
Orbit
SSO
Country
Flag of CISCIS
Related business
Manufacturer
Unknown
Mission
Spacecraft
Bus & Motor
Unknown
Mass
Unknown
Launch date (UTC)
2001-12-10 (24 years ago)
Launch vehicle
Unknown
Launch site
Tyuratam Missile And Space Complex (TTMTR)
Object type
Payload
Rocket body
Debris
Shape & HBR
Unknown shape, 0.1 m
Radar Cross Section
Small (<0.1 m²)

Expand to show TLE details & history
Last TLE update: 1 week ago

TLE from 1 week ago
0 SL-16 DEB
1 43370U 01056P   26142.43658668  .00000830  00000-0  10752-2 0  9998
2 43370  99.3886  29.7278 0129227 279.9701  78.6877 13.61840808618899
Epoch: 2026-05-22T10:28Z
TLE epoch observation values (Epoch: 2026-05-22T10:28:41.089Z)
Latitude
-0.00006°
Longitude
-7.51085°
Altitude
1,014.237 km
Speed
7.353 km/s
True Right ascension
01h 58m 54s
True Declination
0° 00' 00"
Sunlit
Object was in daylight at epoch
Visualization orbit readout
Latitude
Unknown
Longitude
Unknown
Altitude
Unknown
Speed
Unknown
Apparent Right ascension
Unknown
Apparent Declination
Unknown
Sunlit
N/A
Visualization observer readout
Local Sidereal Time
05:26:50
Azimuth
Unknown
Elevation
Unknown
Doppler factor
Unknown
Orbital elements
Apogee altitude
1,121.964 km
Perigee altitude
930.594 km
Semi-major axis
7,404.416 km
Eccentricity
0.01292
Inclination
99.3886°
RAAN
29.7278°
Arg. of periapsis
279.9701°
True anomaly
80.14422°
Mean anomaly
78.6877°
Eccentric anomaly
79.41552°
Mean motion
3.40649 °/min
Orbital period
105.68 mins
BSTAR
0.0010752
Loading maneuver chart data...
Computing Atmospheric mass density...
Loading historical data...
Loading historical data...
Loading historical data...
Loading historical data...
Loading historical data...
Loading historical data...
Loading historical data...

Documentation

Showing up to 5 results
|